CW5629 Weather Reports


Display with metric or nautical units.
time (UTC)temp
F
wind
direction
speed
MPH
gust
MPH
rain 1hr
in
rain 24hr
in
rain mn
in
humidity
%
barometer
mb
20260901103118 70 7 0.0 0.0 0.00 0.08 0.00 60 1020.5
20260901102150 69 232 0.0 0.0 0.00 0.08 0.00 59 1020.5
20260901101140 69 179 0.0 0.0 0.00 0.08 0.00 60 1020.5
20260901100132 70 220 0.0 0.0 0.00 0.08 0.00 61 1020.6
20260901095117 68 231 0.0 0.0 0.00 0.08 0.00 65 1020.7
20260901094129 68 157 0.0 0.0 0.00 0.08 0.00 67 1020.8
20260901093142 68 233 0.0 0.0 0.00 0.08 0.00 72 1020.8
20260901092133 67 8 0.0 0.0 0.00 0.08 0.00 74 1020.8
20260901091118 66 189 0.0 0.0 0.00 0.08 0.00 78 1021.0
20260901090131 65 210 0.0 0.0 0.00 0.08 0.00 82 1021.0
20260901085135 63 176 0.0 0.0 0.00 0.08 0.00 87 1021.0
20260901084155 61 206 0.0 0.0 0.00 0.08 0.00 90 1021.0
20260901083139 60 206 0.0 0.0 0.00 0.08 0.00 92 1021.0
20260901082111 59 206 0.0 0.0 0.00 0.08 0.00 93 1021.0
20260901081116 58 206 0.0 0.0 0.00 0.08 0.00 94 1020.8
20260901080154 58 206 0.0 0.0 0.00 0.08 0.00 95 1020.9
20260901075117 57 206 0.0 0.0 0.00 0.08 0.00 95 1020.8
20260901074130 56 206 0.0 0.0 0.00 0.08 0.00 96 1020.7
20260901073114 55 206 0.0 0.0 0.00 0.08 0.00 96 1020.7
20260901072127 54 207 0.0 0.0 0.00 0.08 0.00 96 1020.7
20260901071113 53 206 0.0 0.0 0.00 0.08 0.00 95 1020.6
20260901070126 52 206 0.0 0.0 0.00 0.08 0.00 95 1020.6
20260901065110 52 206 0.0 0.0 0.00 0.08 0.00 95 1020.6
20260901064124 52 206 0.0 0.0 0.00 0.08 0.00 95 1020.6
20260901063136 51 206 0.0 0.0 0.00 0.08 0.00 95 1020.5
20260901062148 51 207 0.0 0.0 0.00 0.08 0.00 95 1020.4
20260901061111 51 207 0.0 0.0 0.00 0.08 0.00 95 1020.2
20260901060124 50 206 0.0 0.0 0.00 0.08 0.00 94 1020.2
20260901055130 50 206 0.0 0.0 0.00 0.08 0.00 94 1020.1
20260901054121 50 206 0.0 0.0 0.00 0.08 0.00 94 1020.0
20260901053135 50 206 0.0 0.0 0.00 0.08 0.00 94 1019.9
20260901052125 50 206 0.0 0.0 0.00 0.08 0.00 94 1019.9
20260901051119 49 206 0.0 0.0 0.00 0.08 0.00 94 1019.9
20260901050125 49 206 0.0 0.0 0.00 0.08 0.00 93 1019.8
20260901045118 49 206 0.0 0.0 0.00 0.08 0.00 93 1019.8
20260901044131 49 206 0.0 0.0 0.00 0.08 0.00 93 1019.8
20260901043115 49 206 0.0 0.0 0.00 0.08 0.00 93 1019.7
20260901042112 49 206 0.0 0.0 0.00 0.08 0.00 93 1019.7
20260901041125 50 206 0.0 0.0 0.00 0.08 0.00 93 1019.7
20260901040153 49 206 0.0 0.0 0.00 0.08 0.00 93 1019.7
20260901035116 50 206 0.0 0.0 0.00 0.08 0.00 93 1019.8
20260901034112 50 206 0.0 0.0 0.00 0.08 0.00 92 1019.9
20260901033125 50 206 0.0 0.0 0.00 0.08 0.00 92 1019.9
20260901032130 50 206 0.0 0.0 0.00 0.08 0.00 92 1019.9
20260901031123 50 206 0.0 0.0 0.00 0.08 0.00 92 1019.9
20260901030129 51 206 0.0 0.0 0.00 0.08 0.00 92 1019.9
20260901025121 51 206 0.0 0.0 0.00 0.08 0.00 92 1019.9
20260901024133 52 206 0.0 0.0 0.00 0.08 0.00 92 1019.9
20260901023119 52 206 0.0 0.0 0.00 0.08 0.00 92 1019.9
20260901022131 53 206 0.0 0.0 0.00 0.08 0.00 92 1019.9
20260901021117 53 206 0.0 0.0 0.00 0.08 0.00 92 1020.0
20260901020127 53 206 0.0 0.0 0.00 0.08 0.00 92 1020.1
20260901015114 53 206 0.0 0.0 0.00 0.08 0.00 92 1020.1
20260901014126 53 206 0.0 0.0 0.00 0.08 0.00 92 1020.1
20260901013113 53 206 0.0 0.0 0.00 0.08 0.00 92 1020.1
20260901012126 53 204 0.0 0.0 0.00 0.08 0.00 92 1020.0
20260901011138 53 198 0.0 0.0 0.00 0.12 0.00 92 1019.9
20260901010123 53 198 0.0 0.0 0.00 0.12 0.00 92 1019.9
20260901005116 52 238 0.0 0.0 0.00 0.12 0.00 92 1019.9
20260901004123 52 238 0.0 0.0 0.00 0.12 0.00 91 1019.8
20260901003116 52 238 0.0 0.0 0.00 0.12 0.00 91 1019.8
20260901002123 52 238 0.0 0.0 0.00 0.12 0.00 91 1019.8
20260901001116 52 238 0.0 0.0 0.00 0.12 0.00 91 1019.8
20260901000130 53 238 0.0 0.0 0.00 0.12 0.00 90 1019.8
20260831235114 53 238 0.0 0.0 0.00 0.12 0.00 90 1019.9
20260831234134 53 238 0.0 0.0 0.00 0.12 0.00 90 1019.9
20260831233140 53 238 0.0 0.0 0.00 0.12 0.00 90 1019.9
20260831232111 53 238 0.0 0.0 0.00 0.12 0.00 89 1020.0
20260831231145 53 260 0.0 0.0 0.00 0.16 0.02 89 1019.9
20260831230135 53 260 0.0 0.0 0.00 0.16 0.02 88 1019.9
20260831225121 54 260 0.0 0.0 0.00 0.16 0.02 88 1019.9
20260831224119 54 260 0.0 0.0 0.00 0.16 0.02 87 1019.9
20260831223147 54 260 0.0 0.0 0.00 0.16 0.02 87 1019.9
20260831222116 55 260 0.0 0.0 0.00 0.16 0.02 86 1019.9
20260831221122 55 260 0.0 0.0 0.00 0.16 0.02 85 1019.8
20260831220111 56 260 0.0 0.0 0.00 0.16 0.02 84 1019.8
20260831215124 56 260 0.0 0.0 0.00 0.16 0.02 84 1019.8
20260831214118 57 260 0.0 0.0 0.00 0.16 0.02 83 1019.7
20260831213152 57 260 0.0 0.0 0.00 0.16 0.02 83 1019.7
20260831212117 57 264 0.0 1.0 0.00 0.16 0.02 83 1019.6
20260831211131 57 226 0.0 0.0 0.00 0.39 0.02 82 1019.6
20260831210117 58 227 0.0 0.0 0.00 0.39 0.02 81 1019.5
20260831205130 58 227 0.0 0.0 0.00 0.39 0.02 80 1019.6
20260831204115 58 227 0.0 0.0 0.00 0.39 0.02 79 1019.5
20260831203148 59 238 0.0 0.0 0.00 0.39 0.02 78 1019.5
20260831202120 59 238 0.0 0.0 0.00 0.39 0.02 78 1019.4
20260831201133 59 190 0.0 0.0 0.00 0.91 0.02 77 1019.3
20260831200118 59 185 0.0 0.0 0.00 0.91 0.02 77 1019.2
20260831195131 60 176 0.0 1.0 0.00 0.91 0.02 76 1019.1
20260831194117 60 220 0.0 1.0 0.00 0.91 0.02 76 1019.0
20260831193129 60 205 0.0 0.0 0.00 0.91 0.02 74 1018.8
20260831192142 60 236 0.0 3.0 0.00 0.91 0.02 74 1018.7
20260831191112 61 200 0.0 0.0 0.00 0.91 0.02 72 1018.7
20260831190118 61 168 0.0 2.0 0.00 0.91 0.02 71 1018.4
20260831185130 62 44 0.0 4.0 0.00 0.91 0.02 70 1018.4
20260831184123 62 221 0.0 3.0 0.00 0.91 0.02 68 1018.3
20260831183130 63 214 0.0 4.0 0.00 0.91 0.02 68 1018.2
20260831182123 63 319 0.0 4.0 0.00 0.91 0.02 68 1018.1
20260831181131 63 214 0.0 5.0 0.00 0.91 0.02 67 1018.1
20260831180124 64 236 0.0 7.0 0.00 0.91 0.02 65 1018.1
20260831175138 65 197 2.0 5.0 0.00 0.91 0.02 62 1018.0
20260831174123 66 193 0.0 6.0 0.00 0.91 0.02 60 1017.8
20260831173136 67 240 1.0 6.0 0.00 0.91 0.02 59 1017.7
20260831172122 67 332 1.0 8.0 0.00 0.91 0.02 59 1017.7
20260831171135 68 266 1.0 8.0 0.00 1.10 0.02 57 1017.5
20260831170122 68 12 0.0 8.0 0.00 1.10 0.02 56 1017.4
20260831165116 69 63 1.0 3.0 0.00 1.10 0.02 58 1017.2
20260831164121 68 195 1.0 6.0 0.00 1.10 0.02 58 1017.2
20260831163114 68 203 4.0 8.0 0.00 1.10 0.02 56 1017.2
20260831162119 68 241 1.0 3.0 0.00 1.10 0.02 60 1017.3
20260831161116 68 6 1.0 8.0 0.00 1.10 0.02 58 1017.3
20260831160129 68 193 0.0 7.0 0.00 1.10 0.02 59 1017.2
20260831155114 68 246 1.0 6.0 0.00 1.10 0.02 59 1017.1
20260831154126 68 307 0.0 9.0 0.00 1.10 0.02 61 1017.1
20260831153136 68 359 0.0 6.0 0.00 1.10 0.02 61 1017.0
20260831152117 68 20 2.0 5.0 0.00 1.10 0.02 59 1016.8
20260831151129 69 248 0.0 4.0 0.00 1.10 0.02 63 1016.7
20260831150114 69 25 0.0 8.0 0.00 1.10 0.02 63 1016.6
20260831145124 69 117 2.0 8.0 0.00 1.10 0.02 63 1016.6
20260831144117 70 24 1.0 7.0 0.00 1.10 0.02 62 1016.4
20260831143124 69 279 2.0 7.0 0.00 1.10 0.02 62 1016.3
20260831142117 70 232 1.0 11.0 0.00 1.10 0.02 67 1016.2
20260831140129 68 256 1.0 7.0 0.00 1.10 0.02 72 1016.1
20260831135142 68 24 0.0 6.0 0.00 1.10 0.02 74 1016.0
20260831134126 66 264 0.0 5.0 0.04 1.10 0.02 78 1016.0
20260831133119 65 254 1.0 5.0 0.04 1.10 0.02 79 1016.0
20260831132125 66 207 1.0 5.0 0.04 1.10 0.02 80 1015.9
20260831131137 66 357 0.0 3.0 0.08 1.10 0.02 82 1015.6
20260831130147 65 176 1.0 6.0 0.08 1.10 0.02 83 1015.6
20260831125119 66 234 0.0 3.0 0.08 1.10 0.02 81 1015.6
20260831124125 66 248 1.0 3.0 0.04 1.06 0.02 80 1015.4
20260831123118 65 226 0.0 1.0 0.04 1.06 0.02 83 1015.2
20260831122132 66 342 0.0 5.0 0.04 1.06 0.02 80 1015.2
20260831121115 68 259 2.0 6.0 0.00 1.02 0.01 73 1015.1
20260831120148 69 238 1.0 5.0 0.00 1.02 0.01 69 1014.6
20260831115141 69 249 2.0 5.0 0.00 1.02 0.01 67 1014.5
20260831114131 70 180 0.0 5.0 0.00 1.02 0.01 68 1014.4
20260831113123 69 284 1.0 5.0 0.00 1.02 0.01 69 1014.3
20260831112156 69 225 1.0 5.0 0.00 1.02 0.01 68 1014.2
20260831111121 69 175 0.0 4.0 0.00 1.02 0.01 69 1014.2
20260831110131 69 80 1.0 5.0 0.00 1.02 0.01 70 1014.0
20260831105116 69 235 0.0 3.0 0.00 1.02 0.01 71 1013.8
20260831104149 69 13 1.0 4.0 0.00 1.02 0.01 72 1013.7